Regional Weather Roundup
Issued by NWS

Home | Current Version | Previous Version | Text Only | Print | Product List | Glossary On
Versions: 1 2 3 4 5 6 7 8 9 10 11 12 13 14 15 16 17 18 19 20 21 22 23 24 25 26 27 28 29 30 31 32 33 34 35 36 37 38 39 40 41 42 43 44 45 46 47 48 49 50
000
ASUS46 KSEW 121010
RWRWA

WASHINGTON REGIONAL WEATHER ROUNDUP
NATIONAL WEATHER SERVICE SEATTLE WA
200 AM PST FRI FEB 12 2016

NOTE:"FAIR" INDICATES FEW OR NO CLOUDS BELOW 12,000 FEET WITH NO
SIGNIFICANT WEATHER AND/OR OBSTRUCTIONS TO VISIBILITY.

WAZ505-507>509-121100-
SEATTLE, TACOMA, EVERETT, AND VICINITY

CITY           SKY/WX    TMP DP  RH WIND       PRES   REMARKS
EVERETT        LGT RAIN  50  48  93 SE15G23   30.08S
BOEING FIELD   LGT RAIN  52  52 100 SE9       30.09F
RENTON         LGT RAIN  52  50  93 SE5       30.10F FOG
SEATAC AIRPORT LGT RAIN  52  48  87 SE7       30.10S
JBLM-MCCHORD   LGT RAIN  51  51 100 S5        30.10S
PUYALLUP       RAIN      52  52 100 CALM      30.11R
BREMERTON      CLOUDY    50  50 100 S6        30.13R
JBLM-FT LEWIS  LGT RAIN  52  52 100 S3        30.09S
TACOMA NARROWS LGT RAIN  50  50 100 S6        30.09S FOG
$$

WAZ001-503-506-510-514-515-121100-
NORTH INTERIOR

CITY           SKY/WX    TMP DP  RH WIND       PRES   REMARKS
BELLINGHAM     LGT RAIN  48  47  96 CALM      30.05R
FRIDAY HARBOR  LGT RAIN  50  48  93 E6        30.05S
EASTSOUND      RAIN      52  50  93 S9        30.03S
PORT ANGELES   CLOUDY    47  46  97 CALM      30.03F FOG
EDIZ HOOK      PTSUNNY   47  46  97 CALM      30.04S
PORT TOWNSEND  CLOUDY    52  52 100 CALM      30.04F
NAS WHIDBEY    LGT RAIN  51  50  96 SE10      30.08S
ARLINGTON      CLOUDY    48  45  87 S5        30.09F
BURLINGTON     CLOUDY    50  50 100 CALM      30.07R
$$

WAZ020-022-039-040-504-511-512-121100-
SOUTHWEST INTERIOR

CITY           SKY/WX    TMP DP  RH WIND       PRES   REMARKS
SHELTON        RAIN      49  49 100 CALM      30.07S FOG
OLYMPIA        LGT RAIN  51  50  96 S5        30.10S FOG
CHEHALIS       DRIZZLE   52  52 100 S6        30.11R
KELSO          CLOUDY    50  45  81 S8        30.16R
VANCOUVER      CLOUDY    50  44  80 SE8       30.15R
SCAPPOOSE, OR  CLOUDY    50  47  89 CALM      30.15R
PORTLAND, OR   CLOUDY    52  43  71 SE14      30.15R
$$

WAZ021-516-517-121100-
WASHINGTON COAST

CITY           SKY/WX    TMP DP  RH WIND       PRES   REMARKS
FORKS          LGT RAIN  55  53  93 S10G21    30.02S
HOQUIAM        LGT RAIN  53  52  96 SE8       30.06S
ASTORIA, OR    CLOUDY    53  53 100 CALM      30.08S
$$

WAZ019-023-024-040-518-519-121100-
CASCADE MOUNTAINS AND COLUMBIA GORGE

CITY           SKY/WX    TMP DP  RH WIND       PRES   REMARKS
STAMPEDE PASS  NOT AVBL
TROUTDALE, OR  CLOUDY    51  42  71 E20G28    30.16S
THE DALLES, OR CLOUDY    44  42  93 N3        30.24R FOG
$$

WAZ026-027-041>044-520-521-121100-
EAST SLOPES

CITY           SKY/WX    TMP DP  RH WIND       PRES   REMARKS
OMAK           LGT RAIN  34  32  92 S5        30.22F FOG
WENATCHEE      CLOUDY    37  35  92 CALM      30.23R FOG
ELLENSBURG     CLOUDY    36  33  89 CALM      30.20S FOG
YAKIMA         CLOUDY    39  36  89 CALM      30.23R
$$

WAZ028-034-035-121100-
COLUMBIA BASIN

CITY           SKY/WX    TMP DP  RH WIND       PRES   REMARKS
EPHRATA        CLOUDY    41  37  86 NW7       30.21R
MOSES LAKE     CLOUDY    38  37  97 N6        30.21S
PASCO          MOCLDY    36  35  96 CALM      30.25R FOG
HERMISTON, OR  CLOUDY    42  40  92 CALM      30.23S
$$

WAZ036>038-121100-
NORTHEAST WASHINGTON

CITY           SKY/WX    TMP DP  RH WIND       PRES   REMARKS
SPOKANE GEIGER CLOUDY    40  38  93 E10       30.20F
SPOKANE FELTS  CLOUDY    41  39  93 CALM      30.23S
FAIRCHILD AFB  CLOUDY    39  39 100 E9        30.19S
COEURDALENE,ID CLOUDY    37  36  93 NE10      30.20F
DEER PARK      CLOUDY    39  37  92 CALM      30.23R
$$

WAZ029>033-121100-
SOUTHEAST WASHINGTON

CITY           SKY/WX    TMP DP  RH WIND       PRES   REMARKS
PULLMAN        CLOUDY    43  39  86 E14       30.20F
LEWISTON, ID   MOCLDY    47  38  71 SE6       30.19F
WALLA WALLA    FOG       41  41 100 SE7       30.20F VSB 1/2
PENDLETON, OR  CLOUDY    40  39  97 E6        30.19F FOG
$$



USA.gov is the U.S. government's official web portal to all federal, state and local government web resources and services.